Find Starlink 33800

NORAD ID: 63576 Int'l Des: 2025-076 Owner: SPXS Country: US Constellation: starlink operational
LEOCIRCULAR

Live-Position

3D-Globus wird geladen...

Über Starlink 33800

Beschreibung wird geladen...

Nächste Überflüge

Passes for default location (London). Set your location on the main map for personalized predictions.

Höhenverlauf

Loading altitude history...

Zweizeiliger Elementsatz

1 63576U 25076H 26126.62880357 .00015173 00000-0 56024-3 0 9990
2 63576 43.0038 354.2992 0001285 279.4851 80.5855 15.27552630 60691
Epoch: 6. Mai 2026 • Age: 9 hours

Aktueller Status

Höhe 487.5 km
Geschwindigkeit 7.62 km/s
Subsatellitenpunkt -20.80°S, 26.59°W
Startdatum 14. Apr. 2025
Alter 1 years
Typ internet

Technische Details

Klassifizierung Payload
Masse 575.00 kg
Trockenmasse 530.00 kg
Gesamtmasse 575.00 kg
Länge 0.30 m
Durchmesser 4.10 m
Spannweite 29.00 m
Form Box + pan
Hersteller SPXS
Bus-Typ Starlink V2MO
Phasenstatus In Orbit
Besitzer/Staat SPXS/US

Most Searched